Home > Weather > Campbell River > Past weeks

Flag for Canada Past Weather in Campbell River, British Columbia, Canada — Yesterday and Last 2 Weeks

Now
66 °F

Scattered clouds.


Feels Like: 66 °F
Forecast: 51 / 68 °F
Wind: 9 mph from Southeast

Location: Campbell River Airport

Current Time: May 24, 2016 at 2:41:13 PM

Latest Report: May 24, 2016 at 2:00 PM


Visibility: 30 mi

Pressure: 29.97 "Hg

Humidity: 49%

Dew Point: 46 °F

Location of Campbell RiverLocation

Past Weather in Campbell River — Graph

°F

Campbell River Temperature Yesterday

Maximum temperature yesterday: 64 °F (at 10:00 AM)
Minimum temperature yesterday: 52 °F (at 6:00 AM)
Average temperature yesterday: 61 °F

High & Low Weather Summary for the Past Weeks

 TemperatureHumidityPressure
High79 °F (May 14, 4:00 PM)100% (May 20, 6:00 AM)30.29 "Hg (May 20, 6:00 AM)
Low39 °F (May 13, 6:00 AM)17% (May 9, 5:00 PM)29.71 "Hg (May 21, 6:00 PM)
Average62 °F55%29.98 "Hg
* Reported May 9 1:00 PM — May 24 1:00 PM, Campbell River, Weather by CustomWeather, © 2016

Note: Actual official high and low records may vary slightly from our data, if they occured in-between our weather recording intervals... More about our weather records

Advertising

Campbell River Weather History for the Previous 24 Hours

Scroll right to see more
 ConditionsComfort  
Time TempWeatherWind HumidityBarometerVisibility
1:00 PM
Tue, May 24
64 °FScattered clouds.10 mph52%29.97 "Hg30 mi
12:00 PM66 °FScattered clouds.3 mph52%29.96 "Hg30 mi
11:00 AM63 °FPartly sunny.7 mph59%29.96 "Hg30 mi
10:00 AM61 °FScattered clouds.6 mph59%29.96 "Hg30 mi
9:00 AM57 °FPartly sunny.5 mph67%29.96 "Hg30 mi
8:00 AM55 °FPartly sunny.7 mph72%29.96 "Hg30 mi
7:00 AM52 °FPartly sunny.5 mph82%29.95 "Hg30 mi
6:00 AM50 °FPassing clouds.7 mph82%29.95 "Hg30 mi
9:00 PM
Mon, May 23
59 °FPartly sunny.6 mph63%29.92 "Hg30 mi
8:00 PM61 °FPartly sunny.6 mph59%29.91 "Hg30 mi
7:00 PM63 °FPartly sunny.8 mph56%29.90 "Hg30 mi
6:00 PM63 °FPartly sunny.6 mph56%29.90 "Hg30 mi
5:00 PM64 °FPartly sunny.6 mph52%29.90 "Hg30 mi
4:00 PM64 °FMostly cloudy.6 mph52%29.90 "Hg30 mi
3:00 PM63 °FMostly cloudy.6 mph56%29.90 "Hg30 mi
2:00 PM63 °FPartly sunny.2 mph56%29.90 "Hg30 mi
Weather by CustomWeather, © 2016

See weather overviewHow to use our weather pages